Theta_e
324 323 322 321 321 321 321 321 321 322 322 321 321 321 320 319 318 318 316 317 317 316 314 314 316 317 318 328 332 325 331 345 349 349 348 349 349 349 350 349 346 345 344 344 344 344 343
322 321 321 320 320 319 319 319 319 319 320 322 322 321 321 320 319 320 319 316 316 314 314 314 316 317 321 332 331 327 333 345 345 342 346 346 344 344 349 349 347 344 344 345 345 345 345
320 319 318 318 318 317 318 318 317 317 317 319 322 322 321 321 319 320 319 317 315 314 314 314 316 317 329 331 330 332 335 342 341 339 344 340 340 342 349 349 346 344 346 346 346 345 346
317 316 316 315 314 314 314 314 315 315 315 315 318 321 321 321 320 318 314 315 315 315 314 314 316 320 330 328 330 330 335 335 336 337 344 338 336 346 349 348 348 348 348 350 346 345 345
314 314 313 313 312 312 312 312 312 312 313 313 315 319 322 321 321 318 317 314 315 314 314 315 319 327 328 328 329 326 334 336 339 340 343 334 335 345 348 351 352 350 349 350 350 345 347
311 311 310 310 310 310 310 310 311 311 311 312 313 315 321 322 321 323 324 321 315 314 314 315 324 325 325 328 330 326 331 334 340 344 341 337 338 346 348 349 350 345 345 346 352 349 349
309 309 309 309 309 309 309 310 310 310 311 311 312 313 319 322 321 323 323 326 328 327 319 325 324 326 325 329 328 327 329 336 341 342 345 339 342 344 346 346 344 343 344 347 348 349 351
308 308 309 309 309 309 310 310 310 310 311 311 311 312 316 321 321 322 323 330 329 329 328 323 324 325 327 327 328 328 327 336 343 346 345 343 340 341 340 342 343 340 342 347 346 345 349
308 308 309 309 309 310 310 310 310 310 311 311 311 312 314 321 322 322 326 328 327 328 331 329 324 325 326 326 327 329 327 331 336 342 344 343 340 337 338 339 339 339 344 346 349 345 347
308 308 309 309 309 310 310 310 310 310 311 311 311 311 312 321 323 326 328 329 328 328 335 331 326 326 326 327 328 328 327 330 333 335 337 338 338 336 337 337 337 341 341 341 341 345 351
307 308 308 309 309 310 310 310 310 310 311 311 311 312 312 320 328 326 331 328 328 328 338 331 327 327 328 329 329 328 328 328 330 331 333 334 334 333 336 336 336 338 338 341 340 341 342
307 308 308 309 310 310 310 310 311 311 311 311 311 312 312 314 321 325 327 328 327 332 339 330 328 328 329 329 329 328 327 327 327 329 329 330 329 330 333 333 334 335 335 338 339 338 338
306 307 308 309 310 310 310 310 311 311 311 311 312 312 312 316 326 325 326 328 333 336 335 332 329 329 330 330 329 329 329 328 327 327 328 328 328 329 328 330 333 335 334 337 339 338 339
306 307 308 309 310 310 310 310 311 311 311 311 313 312 312 314 322 325 328 333 337 335 335 332 330 330 330 331 330 329 330 330 329 329 330 330 329 328 328 329 333 333 334 336 340 338 337
306 306 308 309 310 310 310 310 311 312 311 312 319 317 319 320 322 326 330 336 337 335 335 333 333 331 332 331 331 330 331 331 331 329 330 331 330 330 328 329 331 332 333 334 335 335 335
306 306 308 309 310 310 310 310 311 312 311 316 326 326 325 322 324 328 333 334 336 333 333 333 335 334 334 332 330 331 331 332 331 331 330 332 334 332 330 329 329 330 332 333 335 336 338
305 306 307 309 309 309 309 310 311 312 311 322 326 330 327 323 326 330 335 335 335 331 330 334 334 336 334 334 331 332 332 331 330 330 330 331 332 334 331 330 331 331 329 330 331 332 335
305 306 307 308 309 309 309 310 312 312 313 323 328 332 327 326 329 330 333 334 329 332 329 331 333 334 335 334 334 332 332 333 333 332 330 331 332 333 334 333 333 333 334 333 334 337 335
304 305 306 308 308 309 309 310 312 313 312 321 330 329 327 327 333 332 332 332 330 329 331 331 332 332 333 335 335 334 333 334 333 332 333 334 332 332 334 334 333 333 332 332 333 334 335
304 305 305 307 308 308 309 310 313 313 313 319 327 329 328 328 329 332 332 331 329 327 328 328 331 330 333 334 335 337 334 335 333 334 331 332 333 334 335 336 337 336 334 333 333 334 334
303 304 305 306 307 308 309 310 312 313 313 320 326 328 328 331 330 329 330 330 329 329 328 328 330 330 332 334 335 335 335 336 334 331 332 333 335 336 335 335 336 336 336 336 336 336 337
303 303 304 305 306 307 308 310 312 313 319 322 325 327 325 327 327 328 323 329 327 328 327 328 328 329 329 331 334 335 337 335 336 336 335 335 338 336 337 337 337 337 335 336 335 335 336
303 303 304 305 305 307 308 309 312 313 317 320 320 321 324 320 325 327 328 328 327 326 325 325 327 327 327 329 329 329 330 331 332 334 335 336 336 337 338 336 336 337 335 335 335 336 335
304 303 303 304 305 306 307 309 310 313 315 320 319 321 322 322 321 323 322 322 322 322 324 322 322 323 326 324 323 322 322 324 326 327 328 331 334 334 335 334 336 333 331 331 332 332 333
305 303 303 304 305 305 306 309 310 311 313 319 318 321 323 325 322 321 320 321 321 321 319 320 320 322 322 320 321 322 323 324 324 324 325 325 327 329 330 329 329 327 327 328 328 328 333
305 305 303 304 304 305 305 308 310 310 310 318 318 319 321 324 323 321 321 321 324 324 325 322 322 322 322 322 324 325 326 325 325 326 325 325 326 326 327 327 327 327 332 330 331 331 335
306 304 303 303 304 305 305 306 309 310 310 313 317 314 321 322 320 321 323 324 321 322 324 324 323 323 322 326 325 325 325 324 324 325 326 329 327 326 327 328 327 327 330 329 330 333 331
306 304 303 303 304 304 305 305 308 310 310 312 318 311 318 320 320 318 318 321 321 321 324 325 323 324 324 325 326 326 326 327 327 326 327 327 329 329 329 329 328 330 329 330 331 328 329
306 304 302 303 304 304 305 305 307 310 310 313 317 316 312 320 322 318 318 318 319 320 322 320 325 325 326 328 327 327 327 326 327 328 327 327 327 329 331 331 330 329 329 328 326 325 325
Wind_Speed
15 15 15 14 14 14 13 13 13 13 13 12 12 12 11 10 7 4 1 1 3 3 5 6 7 7 7 8 3 6 9 9 5 1 4 7 11 9 3 3 5 11 9 11 14 9 14
15 15 15 15 14 14 14 14 14 13 13 13 12 12 11 10 7 4 2 1 3 4 5 6 7 8 7 12 4 6 8 9 5 5 4 5 5 9 9 5 7 7 10 11 10 10 3
16 15 15 15 15 15 14 14 14 14 14 13 12 11 10 9 7 4 2 0 3 4 5 6 7 7 7 2 5 6 11 9 7 5 4 3 6 10 5 6 2 11 9 10 10 7 8
16 16 16 16 16 16 16 15 15 14 14 13 12 11 10 9 7 3 1 1 3 4 5 5 7 8 2 4 5 8 12 10 9 7 4 4 6 7 11 5 7 3 8 8 7 6 9
17 17 17 17 17 17 17 16 16 15 14 13 12 11 9 7 5 1 3 2 2 4 5 7 5 6 6 6 5 9 13 10 9 8 7 7 8 10 8 5 6 4 1 6 9 7 3
18 18 18 18 18 18 17 17 17 16 15 13 12 10 8 6 3 2 3 4 4 4 6 8 6 7 8 11 9 9 12 9 10 9 10 10 11 13 15 10 2 4 7 6 7 10 8
18 18 18 18 18 18 18 18 17 16 15 14 12 9 7 5 1 4 5 1 2 3 12 6 12 4 7 8 8 9 11 10 11 10 14 10 12 6 7 14 5 4 2 6 2 4 7
19 19 18 19 19 19 19 18 18 18 16 14 12 9 6 3 3 5 4 5 4 4 11 11 6 6 5 11 10 10 11 12 14 14 16 5 14 8 5 5 7 7 5 4 5 2 9
19 19 19 19 19 19 20 20 19 18 17 15 12 9 5 2 4 7 6 3 2 4 8 11 11 13 12 12 13 16 14 16 10 14 12 15 7 3 4 6 9 13 6 0 5 6 10
19 18 19 19 20 20 20 21 20 19 18 15 12 9 5 0 3 5 7 5 2 4 6 14 12 9 11 10 8 5 14 11 9 12 12 10 0 3 8 10 6 3 3 5 5 9 6
19 19 19 20 20 21 22 22 22 20 19 16 12 8 5 9 5 8 4 2 3 3 6 14 15 11 13 17 11 14 12 13 14 12 8 12 9 9 12 12 2 7 7 8 7 12 11
20 19 20 20 21 22 23 23 23 21 18 17 14 8 7 8 11 7 5 3 2 7 2 9 12 13 15 17 9 9 12 14 13 11 10 19 3 8 11 5 6 5 9 11 12 12 9
20 19 19 21 22 24 24 25 24 22 20 17 14 6 9 10 3 8 6 6 7 9 8 10 14 18 18 12 12 11 14 15 11 10 14 17 18 14 12 11 11 10 14 9 9 9 4
20 19 19 20 22 24 25 26 25 23 20 17 9 2 9 15 7 7 8 9 8 5 5 5 11 14 15 13 13 12 12 13 15 13 12 9 14 19 14 15 10 15 13 11 4 5 7
20 19 19 20 22 24 26 27 25 23 19 12 2 3 2 6 9 9 13 10 6 2 5 6 8 10 14 12 7 12 14 14 13 12 11 5 8 4 5 10 15 14 12 13 12 12 7
19 18 18 20 22 24 27 28 26 22 17 5 2 5 3 6 10 11 10 16 3 5 7 8 12 12 14 13 12 12 13 10 9 8 13 4 8 8 9 9 11 13 12 8 9 8 9
20 18 18 19 21 24 26 28 27 22 15 2 2 8 3 7 10 13 10 15 5 4 6 7 11 6 13 9 15 14 7 9 4 4 12 14 8 7 6 11 12 9 13 13 14 11 10
20 18 18 19 20 23 25 27 27 24 12 3 7 4 5 11 12 16 12 12 5 6 6 7 7 9 9 10 8 14 11 3 3 8 11 14 9 11 14 11 8 10 11 12 10 12 11
20 19 18 19 20 22 24 25 26 24 15 3 6 3 6 11 7 9 7 5 6 6 6 3 7 4 1 8 6 9 8 10 3 9 3 5 9 12 12 10 14 11 14 12 15 11 12
19 19 19 19 19 21 23 24 24 22 14 3 6 5 7 12 11 12 7 11 10 4 3 7 7 5 8 10 8 4 9 6 2 8 8 7 13 17 14 12 7 5 11 12 11 11 11
19 19 19 19 19 20 22 23 23 20 11 3 5 2 6 4 8 8 4 4 11 6 5 5 6 9 6 12 12 10 12 4 8 7 8 8 16 17 19 20 18 12 15 13 14 13 15
19 19 19 19 19 19 20 21 22 20 11 5 8 6 2 3 1 7 5 5 7 5 4 6 9 2 6 10 11 5 18 5 10 8 10 12 15 15 20 20 17 22 18 19 19 19 20
19 19 19 18 18 17 18 19 20 21 13 7 8 4 6 6 6 8 1 3 5 2 4 4 7 4 10 9 9 10 10 14 14 7 12 13 12 13 19 16 19 24 19 22 18 21 19
19 19 18 18 17 16 15 16 17 18 17 13 10 6 8 3 6 4 2 2 4 2 8 2 4 6 7 10 11 15 18 19 18 16 16 14 14 11 15 18 22 16 16 14 10 14 17
17 18 18 17 16 15 13 12 13 13 14 12 13 5 6 3 5 5 4 2 3 3 7 6 3 4 9 8 8 11 10 14 17 17 17 16 14 13 14 16 20 18 9 8 12 13 7
16 17 17 16 15 14 13 11 11 12 11 9 11 9 5 10 5 4 3 2 4 4 5 3 1 5 6 8 8 8 8 5 4 5 5 15 15 12 13 17 19 14 10 9 6 11 13
15 16 16 16 15 14 12 9 8 9 10 6 8 11 3 7 4 3 3 6 3 4 4 3 1 3 4 6 8 10 12 10 10 12 8 8 10 15 14 15 19 14 7 2 9 2 7
15 16 15 15 14 13 11 9 6 7 8 5 5 10 5 4 4 1 3 2 2 3 5 7 5 6 5 6 5 6 4 7 4 9 12 12 10 10 13 17 21 10 4 7 7 5 7
14 15 15 14 13 12 10 8 5 4 6 7 4 10 5 2 3 2 2 2 2 1 5 1 5 3 8 4 1 4 5 6 7 9 5 8 9 9 9 10 6 4 4 3 6 10 13
Wind_Direction
30 27 24 22 20 17 12 8 4 1 360 1 359 359 359 360 360 354 50 188 194 193 202 193 182 180 177 218 74 168 164 161 159 190 240 269 275 312 181 205 355 62 94 105 99 97 83
26 24 20 17 14 11 8 6 1 358 354 355 356 355 356 354 358 346 350 135 175 173 191 191 189 186 199 248 122 181 173 165 179 214 238 278 335 319 310 358 73 103 121 112 112 97 120
23 19 15 13 10 7 3 1 357 355 351 351 351 351 349 350 352 348 335 149 156 165 179 190 186 195 247 37 165 195 186 189 205 220 279 311 317 265 342 117 213 140 142 147 135 152 126
18 14 11 8 6 3 0 357 354 350 348 348 346 345 345 346 345 350 11 199 157 158 165 183 177 187 292 184 176 190 194 206 212 230 262 296 306 288 300 131 202 156 217 94 150 193 111
11 8 7 4 1 359 356 353 350 348 345 344 343 341 341 340 339 13 87 114 133 142 152 159 153 202 167 187 188 198 198 208 214 227 250 279 290 273 196 203 34 7 249 250 149 166 138
9 6 4 2 359 356 353 351 348 346 343 342 341 338 337 337 329 164 109 102 105 128 141 145 198 230 207 207 184 184 198 205 209 222 241 248 243 236 96 82 176 337 353 358 147 190 201
7 6 3 0 358 356 355 351 347 343 342 341 338 335 334 340 251 179 158 140 192 190 207 276 171 258 146 162 170 192 201 212 221 232 247 193 272 181 214 173 360 167 87 307 135 38 274
5 4 2 360 358 357 355 351 347 343 340 338 336 332 325 330 196 180 177 242 3 349 211 213 215 218 169 182 183 194 193 211 212 236 214 233 239 51 35 315 291 282 201 174 115 143 259
4 3 1 360 358 357 355 352 347 342 339 337 334 330 316 308 203 197 202 255 279 330 249 170 205 205 190 194 212 188 199 214 234 239 237 263 63 55 264 253 266 244 59 31 158 199 232
2 1 360 359 357 356 354 351 348 342 337 335 330 322 300 208 140 199 226 220 280 305 261 148 195 208 186 205 211 192 202 220 229 253 238 255 271 257 247 261 266 339 55 278 269 273 192
358 359 358 357 357 355 352 350 347 342 336 331 324 310 261 192 196 202 164 208 268 234 252 151 154 147 185 204 111 192 205 213 250 217 263 225 221 228 240 255 300 308 333 307 304 278 273
355 356 356 355 355 353 351 349 348 341 335 328 321 300 240 217 212 190 221 245 238 233 204 158 155 188 184 211 190 142 184 221 233 255 239 265 138 279 266 282 249 335 268 252 255 248 252
353 353 354 353 354 352 350 347 348 341 335 330 322 282 223 193 185 205 204 210 225 254 135 150 176 175 196 183 178 188 192 197 209 212 228 225 240 223 241 241 212 237 256 251 220 213 96
351 351 352 353 353 352 350 347 348 343 335 335 329 255 199 190 215 195 191 228 255 352 175 131 165 187 204 178 204 198 199 213 224 252 282 214 216 206 207 230 248 208 245 287 323 270 31
350 349 350 352 353 352 350 349 348 346 337 339 33 56 138 214 198 192 213 225 250 18 23 200 196 207 199 190 233 197 218 218 204 212 256 209 238 95 183 245 226 246 251 280 294 275 247
351 349 349 349 351 351 350 349 348 349 338 330 157 213 186 199 183 183 231 249 337 344 315 278 221 210 211 197 197 195 187 211 214 209 227 290 267 172 151 232 243 258 280 259 215 261 266
353 350 348 348 350 351 351 350 349 352 344 207 217 218 166 176 174 212 229 236 217 163 279 268 253 268 253 235 202 215 241 126 236 202 242 247 241 163 169 212 228 190 234 245 278 293 302
353 351 349 348 349 351 352 351 352 353 2 168 277 240 160 167 202 221 230 234 20 254 219 255 288 300 289 270 257 242 235 156 124 268 220 236 270 242 224 233 241 305 283 230 230 221 238
353 352 349 348 349 352 354 354 354 354 358 276 259 72 178 185 232 206 213 244 254 248 235 248 243 251 191 273 261 267 255 79 97 247 318 274 230 254 240 226 200 233 246 249 269 275 266
354 352 350 348 349 352 355 357 356 356 353 310 277 207 165 214 265 283 185 228 201 244 259 282 303 259 251 245 223 279 260 120 262 286 16 297 266 273 280 264 7 217 238 254 269 268 260
353 353 352 350 350 352 356 359 1 359 1 356 240 4 346 197 211 252 305 343 231 179 249 255 228 254 274 260 242 238 246 168 199 169 245 247 262 275 280 288 293 289 274 264 264 270 268
353 353 353 353 352 353 357 2 6 10 33 25 325 330 246 347 261 253 150 206 267 117 271 203 259 51 304 266 297 312 329 225 271 197 243 247 260 272 276 281 283 280 262 267 271 272 273
351 353 353 354 353 353 356 3 10 17 41 24 356 317 284 110 218 235 110 94 218 342 177 326 327 299 258 26 351 320 308 305 290 301 282 286 278 271 264 263 271 263 258 258 268 272 267
349 351 352 352 353 354 355 360 9 20 37 38 3 331 277 183 264 2 63 260 230 278 306 152 303 276 20 321 303 274 261 261 261 260 258 257 265 272 273 283 258 269 290 316 308 300 307
346 348 350 351 351 352 352 356 4 11 24 52 5 14 318 323 23 165 199 224 207 189 242 274 271 316 312 296 273 247 245 247 252 249 242 249 258 257 259 255 264 266 256 264 266 263 343
343 345 348 347 348 349 350 349 358 7 15 55 357 12 317 305 82 21 247 312 279 201 163 212 293 303 286 264 236 252 250 285 227 197 248 242 240 253 251 263 267 277 50 21 307 248 23
339 342 344 345 344 344 346 344 348 4 13 31 354 5 334 289 85 310 325 360 315 276 305 124 330 222 252 247 247 252 254 251 255 261 240 224 241 250 238 250 263 289 75 73 252 34 3
334 337 339 341 341 342 341 341 340 358 12 56 346 6 35 300 70 70 15 308 231 246 299 76 228 196 222 258 264 273 261 287 309 281 289 282 262 238 247 261 263 25 305 272 43 1 338
330 332 335 335 336 338 337 337 335 349 9 53 360 340 358 253 23 238 221 243 195 356 330 167 357 354 7 293 315 307 287 262 271 273 294 250 271 306 323 330 26 4 49 31 325 319 309